{"data":{"norad_id":68084,"intl_designator":"2026-042R","name":"STARLINK-37037","alt_names":[],"object_type":"PAYLOAD","status":"ACTIVE","operator":null,"country":"US","launch_date":"2026-03-04","launch_site_code":"AFETR","launch_vehicle":null,"mission":null,"orbit_class":"UNKNOWN","rcs_meters":null,"size_class":null,"mass_kg":null,"dimensions":null,"purposes":["comms"],"wikipedia_slug":null,"has_3d_model":false,"image_url":null,"decayed_at":null,"tle_current":{"epoch":"2026-09-19T14:18:36.673056Z","epoch_age_seconds":133620,"freshness":"FRESH","line1":"1 68084U 26042R   26262.59625779  .00016940  00000+0  51140-3 0  9991","line2":"2 68084  53.1617 353.7519 0001354  84.1607 275.9550 15.34397505 32058","mean_motion":15.34397505,"eccentricity":0.0001354,"inclination_deg":53.1617,"raan_deg":353.7519,"arg_perigee_deg":84.1607,"mean_anomaly_deg":275.955,"bstar":0.0005114,"rev_number":3205,"period_min":93.84791068205,"perigee_km":461.78440511035,"apogee_km":463.63690665556,"semimajor_km":6840.847655883,"source":"CELESTRAK","updated_at":"2026-09-20T09:00:43.780828Z"}}}